SL-16 R/B (25407 NORAD) Tracking and Keplerian Element Data

This shows tracking and keplerian element data for the satellite.

Feedback or suggestion? Click here.




ElementValue
Catalog25407
NameSL-16 R/B
Epoch Orbit31566
Epoch Day12.52368778
Epoch Year2024
RAAN36.6922
Inclination71.0113
Eccentricity0.000644
Argument of Perigee163.0487
Mean Anonmoly197.0853
Mean Motion14.15963766
Decay Rate3.34E-06
L11 25407U 98045B 24012.52368778 .00000334 00000+0 19372-3 0 9993
L22 25407 71.0113 36.6922 0006440 163.0487 197.0853 14.15963766315666



Live tracking and technical data element details for SL-16 R/B (NORAD 25407). SL-16 R/B can be tracked NOW for your location showing map with azimuth and elevation plus other details from your city location.







IsCatalogInMostPopularTable: catalog: 25407, numindb: 588
Update: records affected: 1



GetName: 25407 SL-16 R/B

Hit Count: updated at: Fri, 19 Apr 2024 13:18:59 GMT